Date,TemperatureHighF,TemperatureAvgF,TemperatureLowF,DewpointHighF,DewpointAvgF,DewpointLowF,HumidityHigh,HumidityAvg,HumidityLow,PressureMaxIn,PressureMinIn,WindSpeedMaxMPH,WindSpeedAvgMPH,GustSpeedMaxMPH,PrecipitationSumIn
2013-2-1,6.3,-0.0,-10.2,1.0,-6.4,-14.7,85,74,56,30.38,30.17,12,3,12,0.00
2013-2-2,15.8,6.9,-1.7,5.6,1.2,-6.3,87,78,58,30.18,30.05,7,1,7,0.01
2013-2-3,21.8,13.1,2.7,12.4,7.1,-0.5,91,78,57,30.08,29.98,12,2,12,0.00
2013-2-4,24.5,14.2,5.5,12.4,7.9,0.3,90,77,50,30.03,29.94,11,2,11,0.00
2013-2-5,30.5,20.2,1.7,25.1,15.8,-1.9,90,83,74,30.13,29.78,14,3,14,0.00
2013-2-6,32.1,15.9,-6.1,29.0,11.4,-9.9,92,83,68,30.23,30.05,8,1,8,0.00
2013-2-7,34.5,31.4,25.1,33.0,29.8,22.2,95,94,89,30.15,29.95,8,0,8,0.00
2013-2-8,32.7,20.2,0.1,22.3,14.0,-3.6,89,78,56,30.40,30.15,6,1,6,0.01
2013-2-9,29.5,19.7,-2.2,26.0,16.7,-5.6,93,88,82,30.40,30.06,12,3,12,0.00
2013-2-10,41.8,34.3,27.7,41.0,32.7,25.8,97,94,87,30.06,29.33,18,3,18,0.07
2013-2-11,35.9,29.8,23.5,34.1,25.8,19.1,93,85,77,30.01,29.33,26,8,26,0.01
2013-2-12,32.9,25.1,20.6,24.2,19.7,16.0,88,80,69,30.09,29.84,11,4,11,0.00
2013-2-13,42.2,29.1,13.5,31.6,23.7,11.3,94,81,60,29.85,29.63,7,1,7,0.03
2013-2-14,35.7,32.7,23.3,33.2,26.8,15.4,94,80,63,30.05,29.55,21,3,21,0.05
2013-2-15,27.2,17.9,8.2,15.3,8.0,1.7,79,65,47,30.26,30.05,13,2,16,0.00
2013-2-16,18.7,11.4,1.0,6.6,2.8,-3.2,82,69,51,30.25,30.18,11,1,11,0.00
2013-2-17,27.4,13.4,-4.6,20.5,6.0,-8.2,95,73,53,30.24,29.90,11,2,11,0.00
2013-2-18,43.6,32.9,20.2,34.2,26.7,16.4,89,78,67,29.91,29.50,15,4,15,0.00
2013-2-19,20.2,12.4,6.7,16.3,5.3,-2.1,89,73,61,30.27,29.60,21,5,21,0.00
2013-2-20,24.1,13.8,3.9,11.8,4.9,-2.8,79,68,55,30.43,30.27,7,2,9,0.00
2013-2-21,24.5,17.0,9.5,23.0,12.9,4.5,94,84,75,30.48,30.07,20,4,20,0.00
2013-2-22,31.4,25.5,22.3,30.4,23.9,20.8,96,94,91,30.07,29.81,11,3,19,0.06
2013-2-23,32.7,25.8,18.4,27.1,22.2,15.4,92,86,78,29.95,29.84,12,3,12,0.03
2013-2-24,41.4,23.4,5.7,30.7,17.3,2.9,92,79,54,30.15,29.96,6,1,6,0.02
2013-2-25,42.2,29.7,18.6,29.0,23.2,15.4,90,78,56,30.16,30.04,6,0,6,0.00
2013-2-26,36.4,30.8,25.3,27.9,26.1,22.5,94,83,69,30.05,29.72,25,6,25,0.00
2013-2-27,34.2,31.2,28.3,30.7,28.8,26.8,95,91,84,29.85,29.69,12,4,13,0.05
2013-2-28,33.5,31.3,27.6,28.9,25.7,20.0,90,80,68,30.15,29.85,9,4,14,0.02